sat.trackr.live / text

‹ back to catalog

BUCCANEER MM

NORAD 63245 · 2025-052AM

PAYLOAD ACTIVE UNKNOWN

§ Identity

Operator
Country
AUS
Launch date
2025-03-15
Launch site
AFWTR
Launch vehicle
Mass (kg)
RCS (m²)

External: N2YO · Heavens-Above · Gunter

§ Orbital elements

Epoch: 2026-05-25T03:16:18.513696Z

Period
96.35 min
Inclination
97.6899°
Eccentricity
0.0002623
Mean motion
14.94528839 rev/d
Perigee alt
582.0 km
Apogee alt
585.7 km
Semi-major
6,962.0 km
B*
1.6678e-4
RAAN
36.6164°
Arg perigee
309.1480°
Mean anomaly
50.9507°
Rev number
6,515

§ Raw data

BUCCANEER MM1 63245U 25052AM  26145.13632539  .00001745  00000+0  16678-3 0  99912 63245  97.6899  36.6164 0002623 309.1480  50.9507 14.94528839 65150

JSON: /api/v1/satellites/63245 · /tle

For live sub-satellite position, see the globe view (requires WebGL).

§ Visibility from observer

Set your observer location to see the next 7 days of passes ≥ 10°. The values pass through the URL so the page stays shareable.

No JS? Fill the form by hand. The geolocation button needs JavaScript.

§ Radio — SatNOGS DB

ModeDescriptionDownlinkUplink
FSK Apogee TT&C Beacon 400.800 MHz

1 transmitter · refreshed weekly from db.satnogs.org